BREEZE-M DEB (TANK), 40366

Orbit data source: Space-Track

BREEZE-M DEB (TANK), 40366 is space debris in HEO originally from a launch on Sat, 27 Dec 2014 UTC launched from the Tyuratam Missile And Space Complex (TTMTR). Debris objects in space refer to the collection of defunct objects orbiting the Earth. Examples of debris include non-operational satellites, rocket bodies, and fragments generated from explosions, collisions, or faulty payload assembly.

Loading next visibility...
Identifier
40366, 2014-089C
Orbit
HEO
Country
Flag of CISCIS
Related business
Manufacturer
Khrunichev
Mission
Spacecraft
Bus & Motor
BRIZ TANK, Unknown motor
Mass
~1,000 kg wet, 1,000 kg dry
Launch date (UTC)
2014-12-27 (11 years ago)
Launch vehicle
Unknown
Launch site
Tyuratam Missile And Space Complex (TTMTR)
Object type
Payload
Rocket body
Debris
Shape & HBR
Torus, 2.0 m
Radar Cross Section
8.218 m², Large (>1 m²)

Expand to show TLE details & history
Last TLE update: 21 hours ago

TLE from 21 hours ago
0 BREEZE-M DEB (TANK)
1 40366U 14089C   25304.48019204  .00004880  00000-0  10203-2 0  9991
2 40366  49.4915 220.2160 5150497 102.8871 317.1887  5.35702396207446
Epoch: 2025-10-31T11:31Z
TLE epoch observation values (Epoch: 2025-10-31T11:31:28.592Z)
Latitude
0.00002°
Longitude
7.31156°
Altitude
5,069.643 km
Speed
6.384 km/s
True Right ascension
14h 40m 49s
True Declination
0° 00' 00"
Sunlit
Object was in daylight at epoch
Visualization orbit readout
Latitude
Unknown
Longitude
Unknown
Altitude
Unknown
Speed
Unknown
Apparent Right ascension
Unknown
Apparent Declination
Unknown
Sunlit
N/A
Visualization observer readout
Local Sidereal Time
04:28:25
Azimuth
Unknown
Elevation
Unknown
Doppler factor
Unknown
Orbital elements
Apogee altitude
14,526.107 km
Perigee altitude
313.075 km
Semi-major axis
13,797.728 km
Eccentricity
0.51505
Inclination
49.4915°
RAAN
220.216°
Arg. of periapsis
102.8871°
True anomaly
257.19638°
Mean anomaly
317.1887°
Eccentric anomaly
289.34456°
Mean motion
1.33916 °/min
Orbital period
268.83 mins
BSTAR
0.0010203
Loading maneuver chart data...
Computing Atmospheric mass density...
Loading historical data...
Loading historical data...
Loading historical data...
Loading historical data...
Loading historical data...
Loading historical data...
Loading historical data...
Other satellites on launch #89 in the year 2014 (2014-12-27 UTC)

Documentation

Showing up to 5 results
|